Location: Avully
(45.9633°N, 6.0228°E)
Time: 21:55:55
(UTC+00:00)

Cosmos 2360 Rocket - Pass Details

Date: 11 August 2024
Orbit: 834 x 843 km, 71.0° (Epoch: 10 September)

Event Time Altitude Azimuth Distance (km) Brightness Sun altitude
Exits shadow 22:58:00 20° 79° (E) 1,844 3.9 -28.4°
Drops below altitude 10° 23:00:48 10° 52° (NE) 2,467 4.9 -28.5°
Sets 23:03:43 0° 38° (NE) 3,406 5.9 -28.6°
